DW2659 Weather Reports


Display with metric or nautical units.
time (UTC)temp
F
wind
direction
speed
MPH
gust
MPH
rain 1hr
in
rain 24hr
in
rain mn
in
humidity
%
barometer
mb
20260903133904 84 349 0.0 0.0 0.00 0.00 0.00 74 1018.1
20260903133402 83 349 0.0 0.0 0.00 0.00 0.00 77 1018.1
20260903132903 82 349 0.0 0.0 0.00 0.00 0.00 78 1018.2
20260903132404 81 349 0.0 0.0 0.00 0.00 0.00 80 1018.2
20260903131902 80 349 0.0 0.0 0.00 0.00 0.00 84 1018.2
20260903131403 79 349 0.0 0.0 0.00 0.00 0.00 86 1018.2
20260903130402 77 349 0.0 0.0 0.00 0.00 0.00 90 1018.2
20260903125902 76 349 0.0 0.0 0.00 0.00 0.00 92 1018.2
20260903125404 75 349 0.0 0.0 0.00 0.00 0.00 93 1018.2
20260903124902 75 349 0.0 0.0 0.00 0.00 0.00 93 1018.2
20260903123904 74 349 0.0 0.0 0.00 0.00 0.00 94 1018.3
20260903123402 73 349 0.0 0.0 0.00 0.00 0.00 94 1018.3
20260903122902 73 349 0.0 0.0 0.00 0.00 0.00 94 1018.2
20260903122404 73 349 0.0 0.0 0.00 0.00 0.00 94 1018.2
20260903121902 73 349 0.0 0.0 0.00 0.00 0.00 93 1018.2
20260903121403 72 349 0.0 0.0 0.00 0.00 0.00 94 1018.2
20260903120903 72 349 0.0 0.0 0.00 0.00 0.00 94 1018.2
20260903120403 72 349 0.0 0.0 0.00 0.00 0.00 94 1018.2
20260903115902 72 349 0.0 0.0 0.00 0.00 0.00 93 1018.1
20260903115403 72 349 0.0 0.0 0.00 0.00 0.00 93 1017.8
20260903114902 72 349 0.0 0.0 0.00 0.00 0.00 93 1017.8
20260903114403 72 349 0.0 0.0 0.00 0.00 0.00 93 1017.8
20260903113903 72 349 0.0 0.0 0.00 0.00 0.00 93 1017.8
20260903113403 72 349 0.0 0.0 0.00 0.00 0.00 93 1017.8
20260903112902 72 349 0.0 0.0 0.00 0.00 0.00 93 1017.7
20260903112403 72 349 0.0 0.0 0.00 0.00 0.00 93 1017.7
20260903111904 72 349 0.0 0.0 0.00 0.00 0.00 93 1017.7
20260903111403 72 349 0.0 0.0 0.00 0.00 0.00 93 1017.5
20260903110403 72 349 0.0 0.0 0.00 0.00 0.00 93 1017.5
20260903105902 72 349 0.0 0.0 0.00 0.00 0.00 92 1017.2
20260903104402 72 349 0.0 0.0 0.00 0.00 0.00 92 1017.2
20260903103903 72 349 0.0 0.0 0.00 0.00 0.00 92 1017.2
20260903102903 72 349 0.0 0.0 0.00 0.00 0.00 92 1017.1
20260903102402 72 349 0.0 0.0 0.00 0.00 0.00 92 1017.1
20260903101904 72 349 0.0 0.0 0.00 0.00 0.00 92 1017.1
20260903101402 72 349 0.0 0.0 0.00 0.00 0.00 92 1017.0
20260903100903 72 349 0.0 0.0 0.00 0.00 0.00 92 1017.0
20260903100405 72 349 0.0 0.0 0.00 0.00 0.00 92 1017.0
20260903095902 72 349 0.0 0.0 0.00 0.00 0.00 92 1017.2
20260903095403 72 349 0.0 0.0 0.00 0.00 0.00 92 1017.2
20260903094904 72 349 0.0 0.0 0.00 0.00 0.00 92 1017.2
20260903094402 72 349 0.0 0.0 0.00 0.00 0.00 92 1017.1
20260903093902 72 349 0.0 0.0 0.00 0.00 0.00 92 1017.1
20260903092903 72 349 0.0 0.0 0.00 0.00 0.00 92 1017.2
20260903092403 72 349 0.0 0.0 0.00 0.00 0.00 92 1017.2
20260903091403 73 349 0.0 0.0 0.00 0.00 0.00 92 1017.1
20260903090903 73 349 0.0 0.0 0.00 0.00 0.00 92 1017.1
20260903090402 73 349 0.0 0.0 0.00 0.00 0.00 92 1017.1
20260903085904 73 349 0.0 0.0 0.00 0.00 0.00 91 1017.2
20260903085402 73 349 0.0 0.0 0.00 0.00 0.00 91 1017.2
20260903084903 73 349 0.0 0.0 0.00 0.00 0.00 91 1017.1
20260903084403 73 349 0.0 0.0 0.00 0.00 0.00 91 1017.2
20260903083903 73 349 0.0 0.0 0.00 0.00 0.00 92 1017.2
20260903083402 73 349 0.0 0.0 0.00 0.00 0.00 91 1017.2
20260903082904 73 349 0.0 0.0 0.00 0.00 0.00 91 1017.2
20260903082403 73 349 0.0 0.0 0.00 0.00 0.00 91 1017.2
20260903081903 73 349 0.0 0.0 0.00 0.00 0.00 91 1017.2
20260903081402 73 349 0.0 0.0 0.00 0.00 0.00 91 1017.0
20260903080904 73 349 0.0 0.0 0.00 0.00 0.00 91 1017.0
20260903080402 73 349 0.0 0.0 0.00 0.00 0.00 91 1017.0
20260903075903 73 349 0.0 0.0 0.00 0.00 0.00 91 1017.1
20260903074902 73 349 0.0 0.0 0.00 0.00 0.00 90 1017.1
20260903074403 73 349 0.0 0.0 0.00 0.00 0.00 90 1016.9
20260903073404 73 349 0.0 0.0 0.00 0.00 0.00 90 1016.9
20260903072902 73 349 0.0 0.0 0.00 0.00 0.00 90 1016.8
20260903072403 73 349 0.0 0.0 0.00 0.00 0.00 90 1016.8
20260903071904 74 349 0.0 0.0 0.00 0.00 0.00 90 1016.8
20260903071402 74 349 0.0 0.0 0.00 0.00 0.00 90 1016.8
20260903070903 74 349 0.0 0.0 0.00 0.00 0.00 90 1016.8
20260903070403 74 349 0.0 0.0 0.00 0.00 0.00 90 1016.8
20260903065404 74 349 0.0 0.0 0.00 0.00 0.00 90 1016.8
20260903064903 74 349 0.0 0.0 0.00 0.00 0.00 90 1016.8
20260903064403 74 349 0.0 0.0 0.00 0.00 0.00 89 1016.9
20260903063903 74 349 0.0 0.0 0.00 0.00 0.00 89 1016.9
20260903063403 74 349 0.0 0.0 0.00 0.00 0.00 89 1016.9
20260903062903 74 349 0.0 0.0 0.00 0.00 0.00 89 1016.9
20260903062405 74 348 0.0 0.0 0.00 0.00 0.00 89 1016.9
20260903061903 74 349 0.0 0.0 0.00 0.00 0.00 89 1016.9
20260903061403 74 349 0.0 0.0 0.00 0.00 0.00 89 1017.0
20260903060902 74 349 0.0 0.0 0.00 0.00 0.00 89 1017.0
20260903055403 74 349 0.0 0.0 0.00 0.00 0.00 88 1017.0
20260903054904 74 349 0.0 0.0 0.00 0.00 0.00 88 1017.0
20260903054403 75 349 0.0 0.0 0.00 0.00 0.00 88 1017.0
20260903053903 75 349 0.0 0.0 0.00 0.00 0.00 88 1017.0
20260903053404 75 349 0.0 0.0 0.00 0.00 0.00 88 1017.0
20260903052903 75 349 0.0 0.0 0.00 0.00 0.00 88 1017.0
20260903052402 75 349 0.0 0.0 0.00 0.00 0.00 88 1017.0
20260903051404 75 349 0.0 0.0 0.00 0.00 0.00 87 1017.0
20260903045904 75 349 0.0 0.0 0.00 0.00 0.00 87 1017.2
20260903045403 75 349 0.0 0.0 0.00 0.00 0.00 86 1017.2
20260903044903 75 349 0.0 0.0 0.00 0.00 0.00 86 1017.2
20260903044403 75 349 0.0 0.0 0.00 0.00 0.00 86 1017.1
20260903043904 75 349 0.0 0.0 0.00 0.00 0.00 86 1017.1
20260903043403 76 349 0.0 0.0 0.00 0.00 0.00 86 1017.1
20260903042903 76 349 0.0 0.0 0.00 0.00 0.00 86 1017.2
20260903042405 76 349 0.0 0.0 0.00 0.00 0.00 85 1017.2
20260903041902 76 349 0.0 0.0 0.00 0.00 0.00 85 1017.1
20260903041403 76 349 0.0 0.0 0.00 0.00 0.00 85 1017.1
20260903040904 76 349 0.0 0.0 0.00 0.00 0.00 85 1017.1
20260903040403 76 349 0.0 0.0 0.00 0.00 0.00 85 1017.1
20260903035903 76 349 0.0 0.0 0.00 0.00 0.00 85 1017.2
20260903034903 76 349 0.0 0.0 0.00 0.00 0.00 84 1017.2
20260903034403 76 349 0.0 0.0 0.00 0.00 0.00 84 1017.3
20260903033904 77 349 0.0 0.0 0.00 0.00 0.00 84 1017.3
20260903033403 77 349 0.0 0.0 0.00 0.00 0.00 83 1017.3
20260903032903 77 349 0.0 0.0 0.00 0.00 0.00 83 1017.3
20260903031903 77 349 0.0 0.0 0.00 0.00 0.00 82 1017.3
20260903031403 77 349 0.0 0.0 0.00 0.00 0.00 82 1017.3
20260903030403 77 349 0.0 0.0 0.00 0.00 0.00 82 1017.4
20260903025903 77 349 0.0 0.0 0.00 0.00 0.00 81 1017.2
20260903025404 78 349 0.0 0.0 0.00 0.00 0.00 81 1017.2
20260903024903 78 349 0.0 0.0 0.00 0.00 0.00 81 1017.2
20260903024404 78 349 0.0 0.0 0.00 0.00 0.00 79 1017.2
20260903023904 78 348 0.0 0.0 0.00 0.00 0.00 79 1017.2
20260903023403 78 349 0.0 0.0 0.00 0.00 0.00 79 1017.2
20260903022903 78 349 0.0 0.0 0.00 0.00 0.00 79 1017.1
20260903022404 78 349 0.0 0.0 0.00 0.00 0.00 79 1017.1
20260903021904 78 349 0.0 0.0 0.00 0.00 0.00 79 1017.1
20260903021403 79 349 0.0 0.0 0.00 0.00 0.00 78 1017.0
20260903020903 79 349 0.0 0.0 0.00 0.00 0.00 78 1017.0
20260903020404 79 349 0.0 0.0 0.00 0.00 0.00 78 1017.0
20260903015904 79 349 0.0 0.0 0.00 0.00 0.00 77 1016.9
20260903015403 79 349 0.0 0.0 0.00 0.00 0.00 77 1016.9
20260903014904 79 349 0.0 0.0 0.00 0.00 0.00 77 1016.9
20260903014403 79 349 0.0 0.0 0.00 0.00 0.00 78 1016.8
20260903013903 80 349 0.0 0.0 0.00 0.00 0.00 76 1016.8
20260903013404 80 349 0.0 0.0 0.00 0.00 0.00 77 1016.8
20260903012403 80 349 0.0 1.0 0.00 0.00 0.00 76 1016.6
20260903011905 80 349 0.0 1.0 0.00 0.00 0.00 75 1016.6
20260903011403 81 349 0.0 1.0 0.00 0.00 0.00 75 1016.5
20260903010903 81 349 1.0 1.0 0.00 0.00 0.00 75 1016.5
20260903005903 81 349 0.0 0.0 0.00 0.00 0.00 73 1016.5
20260903005403 82 349 0.0 1.0 0.00 0.00 0.00 73 1016.5
20260903004905 82 348 0.0 1.0 0.00 0.00 0.00 74 1016.5
20260903004403 82 349 0.0 1.0 0.00 0.00 0.00 72 1016.3
20260903003405 83 349 0.0 0.0 0.00 0.00 0.00 71 1016.3
20260903002903 83 349 0.0 0.0 0.00 0.00 0.00 68 1016.3
20260903002403 84 349 0.0 1.0 0.00 0.00 0.00 68 1016.3
20260903001904 84 348 0.0 1.0 0.00 0.00 0.00 68 1016.3
20260903001403 84 349 0.0 1.0 0.00 0.00 0.00 67 1016.2
20260903000903 85 349 0.0 1.0 0.00 0.00 0.00 67 1016.2
20260903000404 85 349 0.0 0.0 0.00 0.00 0.00 66 1016.2
20260902235904 86 349 0.0 0.0 0.00 0.00 0.00 66 1016.2
20260902235403 86 349 0.0 0.0 0.00 0.00 0.00 66 1016.2
20260902234905 86 348 0.0 0.0 0.00 0.00 0.00 67 1016.2
20260902234403 87 348 0.0 0.0 0.00 0.00 0.00 66 1016.2
20260902233904 87 348 0.0 0.0 0.00 0.00 0.00 65 1016.2
20260902233404 88 348 0.0 0.0 0.00 0.00 0.00 64 1016.2
20260902232903 88 348 0.0 1.0 0.00 0.00 0.00 64 1016.2
20260902232403 88 348 0.0 0.0 0.00 0.00 0.00 63 1016.2
20260902230904 90 348 0.0 0.0 0.00 0.00 0.00 60 1016.2
20260902225404 91 348 0.0 1.0 0.00 0.00 0.00 58 1016.2
20260902224904 92 348 0.0 0.0 0.00 0.00 0.00 57 1016.2
20260902223903 92 348 0.0 0.0 0.00 0.00 0.00 56 1016.2
20260902223405 93 348 0.0 0.0 0.00 0.00 0.00 57 1016.2
20260902222403 95 348 0.0 0.0 0.00 0.00 0.00 53 1016.1
20260902221905 96 348 0.0 0.0 0.00 0.00 0.00 51 1016.2
20260902221403 96 348 0.0 0.0 0.00 0.00 0.00 52 1016.3
20260902220903 97 348 0.0 0.0 0.00 0.00 0.00 52 1016.4
20260902220404 97 349 0.0 0.0 0.00 0.00 0.00 52 1016.4
20260902215903 97 349 0.0 0.0 0.00 0.00 0.00 51 1016.4
20260902215403 97 348 0.0 0.0 0.00 0.00 0.00 52 1016.4
20260902214904 98 348 0.0 0.0 0.00 0.00 0.00 50 1016.4
20260902214404 98 348 0.0 0.0 0.00 0.00 0.00 50 1016.4
20260902213904 99 348 0.0 0.0 0.00 0.00 0.00 48 1016.4
20260902213404 99 349 0.0 0.0 0.00 0.00 0.00 49 1016.4
20260902212904 99 348 0.0 0.0 0.00 0.00 0.00 49 1016.5
20260902212403 100 349 0.0 0.0 0.00 0.00 0.00 49 1016.5
20260902211403 100 348 0.0 2.0 0.00 0.00 0.00 47 1016.6
20260902210903 100 349 1.0 2.0 0.00 0.00 0.00 48 1016.6
20260902210405 100 348 1.0 2.0 0.00 0.00 0.00 47 1016.6
20260902205903 100 222 1.0 2.0 0.00 0.00 0.00 43 1016.6
20260902204904 99 19 0.0 2.0 0.00 0.00 0.00 45 1016.6
20260902204403 100 18 0.0 2.0 0.00 0.00 0.00 47 1016.7
20260902203903 100 117 0.0 1.0 0.00 0.00 0.00 46 1016.7
20260902203405 99 117 0.0 1.0 0.00 0.00 0.00 46 1017.1
20260902202403 100 111 1.0 2.0 0.00 0.00 0.00 41 1017.1
20260902201905 100 22 0.0 1.0 0.00 0.00 0.00 43 1017.1
20260902201403 100 23 0.0 1.0 0.00 0.00 0.00 44 1017.1
20260902200904 99 6 0.0 3.0 0.00 0.00 0.00 45 1017.1
20260902200404 100 46 1.0 3.0 0.00 0.00 0.00 41 1017.3
20260902195903 99 5 1.0 3.0 0.00 0.00 0.00 47 1017.3
20260902195404 99 35 1.0 3.0 0.00 0.00 0.00 45 1017.3
20260902194904 99 240 2.0 3.0 0.00 0.00 0.00 42 1017.3
20260902194404 99 119 2.0 3.0 0.00 0.00 0.00 41 1017.7
20260902193903 99 277 1.0 2.0 0.00 0.00 0.00 43 1017.7
20260902193405 98 355 1.0 1.0 0.00 0.00 0.00 43 1017.7
20260902192904 98 355 0.0 2.0 0.00 0.00 0.00 43 1017.7
20260902192403 97 77 1.0 2.0 0.00 0.00 0.00 43 1017.7
20260902191904 97 34 1.0 3.0 0.00 0.00 0.00 46 1017.7
20260902191404 96 74 2.0 3.0 0.00 0.00 0.00 47 1018.1
20260902190904 96 82 0.0 2.0 0.00 0.00 0.00 45 1018.1
20260902190405 96 64 2.0 3.0 0.00 0.00 0.00 45 1018.1
20260902185904 96 114 2.0 5.0 0.00 0.00 0.00 45 1018.1
20260902185403 97 123 2.0 6.0 0.00 0.00 0.00 45 1018.1
20260902184905 97 124 1.0 3.0 0.00 0.00 0.00 46 1018.1
20260902183904 96 34 1.0 3.0 0.00 0.00 0.00 47 1018.2
20260902183404 96 34 2.0 3.0 0.00 0.00 0.00 49 1018.2
20260902182903 97 107 2.0 6.0 0.00 0.00 0.00 48 1018.2
20260902182404 97 86 1.0 3.0 0.00 0.00 0.00 50 1018.3
20260902181903 96 198 2.0 5.0 0.00 0.00 0.00 48 1018.3
20260902180904 96 5 2.0 3.0 0.00 0.00 0.00 48 1018.4
20260902180403 95 29 1.0 3.0 0.00 0.00 0.00 52 1018.4
20260902175403 95 121 3.0 7.0 0.00 0.00 0.00 49 1018.6
20260902174904 95 161 2.0 5.0 0.00 0.00 0.00 49 1018.6
20260902173903 95 17 1.0 3.0 0.00 0.00 0.00 49 1018.8
20260902172904 94 91 1.0 3.0 0.00 0.00 0.00 51 1019.1
20260902172404 95 83 1.0 2.0 0.00 0.00 0.00 50 1019.1
20260902171904 95 279 1.0 3.0 0.00 0.00 0.00 53 1019.1
20260902171404 95 356 1.0 3.0 0.00 0.00 0.00 53 1019.3
20260902170904 94 58 1.0 2.0 0.00 0.00 0.00 54 1019.3
20260902170403 94 196 2.0 3.0 0.00 0.00 0.00 51 1019.3
20260902165905 94 345 2.0 3.0 0.00 0.00 0.00 53 1019.4
20260902165404 93 322 2.0 5.0 0.00 0.00 0.00 54 1019.6
20260902164904 93 31 3.0 5.0 0.00 0.00 0.00 55 1019.6
20260902163903 93 96 2.0 3.0 0.00 0.00 0.00 57 1019.6
20260902163404 94 158 2.0 3.0 0.00 0.00 0.00 55 1019.7
20260902162904 94 262 1.0 3.0 0.00 0.00 0.00 59 1019.7
20260902162404 93 0 0.0 2.0 0.00 0.00 0.00 58 1019.7
20260902160903 91 232 2.0 6.0 0.00 0.00 0.00 61 1019.8
20260902160404 90 333 3.0 6.0 0.00 0.00 0.00 62 1019.8
20260902154903 92 5 1.0 3.0 0.00 0.00 0.00 60 1020.1
20260902153404 90 31 1.0 5.0 0.00 0.00 0.00 61 1020.1
20260902152905 90 246 3.0 5.0 0.00 0.00 0.00 60 1020.1
20260902152404 90 130 2.0 5.0 0.00 0.00 0.00 65 1020.1
20260902151903 89 132 2.0 5.0 0.00 0.00 0.00 64 1020.1
20260902150904 89 17 1.0 3.0 0.00 0.00 0.00 67 1020.1
20260902145905 88 355 1.0 2.0 0.00 0.00 0.00 68 1020.1
20260902145403 88 70 1.0 3.0 0.00 0.00 0.00 67 1020.1
20260902144904 88 67 1.0 3.0 0.00 0.00 0.00 69 1020.1
20260902143905 86 138 1.0 3.0 0.00 0.00 0.00 69 1020.1
20260902143404 86 111 1.0 3.0 0.00 0.00 0.00 70 1020.1
20260902142904 86 72 0.0 1.0 0.00 0.00 0.00 70 1020.2
20260902142405 85 138 2.0 3.0 0.00 0.00 0.00 71 1020.2
20260902141904 85 113 1.0 2.0 0.00 0.00 0.00 71 1020.2
20260902141403 84 113 1.0 3.0 0.00 0.00 0.00 72 1020.2
20260902140905 84 113 0.0 1.0 0.00 0.00 0.00 72 1020.2
20260902140404 84 113 0.0 2.0 0.00 0.00 0.00 72 1020.2
20260902135405 83 113 0.0 1.0 0.00 0.00 0.00 74 1020.1
20260902134403 83 141 2.0 3.0 0.00 0.00 0.00 75 1020.2